Regional Weather Roundup
Issued by NWS

Home | Current Version | Previous Version | Graphics & Text | Print | Product List | Glossary On
Versions: 1 2 3 4 5 6 7 8 9 10 11 12 13 14 15 16 17 18 19 20 21 22 23 24 25 26 27 28 29 30 31 32 33 34 35 36 37 38 39 40 41 42 43 44 45 46 47 48 49 50
000
ASUS43 KIND 301259
RWRIN

WEATHER ROUNDUP FOR INDIANA
NATIONAL WEATHER SERVICE INDIANAPOLIS IN
900 AM EDT MON MAR 30 2015

NOTE: "FAIR" INDICATES FEW OR NO CLOUDS BELOW 12,000 FEET WITH NO
SIGNIFICANT WEATHER AND/OR OBSTRUCTIONS TO VISIBILITY.

* - STATION DOES NOT REPORT WEATHER SUCH AS PRECIPITATION OR FOG.

+ - STATION NOT QUALITY CONTROLLED BY THE NATIONAL WEATHER SERVICE.
    USE DATA WITH CAUTION...ESPECIALLY DEWPOINT AND RELATIVE
    HUMIDITY OBSERVATIONS.

INZ001>003-010>013-019-020-301400-
NORTHWEST INDIANA

CITY           SKY/WX    TMP DP  RH WIND       PRES   REMARKS
GARY /AIRPORT/ SUNNY     39  27  60 W9        30.05R

$$

LMZ046-743>745-301400-
SOUTHERN LAKE MICHIGAN

STATION/POSITION TIME  TEMP WIND        PRES
                       AIR  DIR/SP/G
                 (UTC) (F)  (DEG/KT/KT) (MB)
BURNS HARBOR     1200   39  260/ 12/ 14 1017.3R
MICHIGAN CITY    1200   37  240/ 14/ 15   N/A

$$

INZ004-005-014>016-021>024-301400-
NORTH CENTRAL INDIANA

CITY           SKY/WX    TMP DP  RH WIND       PRES   REMARKS
ELKHART        SUNNY     37  30  75 W10       30.00R
GOSHEN         SUNNY     39  32  76 W10       29.99R
SOUTH BEND     SUNNY     39  32  76 W7        30.02R

$$

INZ006>009-017-018-025>027-301400-
NORTHEAST INDIANA

CITY           SKY/WX    TMP DP  RH WIND       PRES   REMARKS
ANGOLA *+      SUNNY     39  28  65 VRB6      29.96R
FORT WAYNE     SUNNY     39  33  79 W12       30.01R

$$

INZ028-029-035-036-043>045-051>053-301400-
WEST CENTRAL INDIANA

CITY           SKY/WX    TMP DP  RH WIND       PRES   REMARKS
GREENCASTLE +  SUNNY     39  30  70 W6        30.10R
LAFAYETTE      SUNNY     37  31  78 W6        30.08R
TERRE HAUTE    SUNNY     43  31  62 NW9       30.12R

$$

INZ030>032-037>040-046>048-054>057-064-065-301400-
CENTRAL INDIANA

CITY           SKY/WX    TMP DP  RH WIND       PRES   REMARKS
ANDERSON       SUNNY     39  32  75 W6        30.06
GREENWOOD *+   SUNNY     41  32  70 W6        30.09R
INDIANAPOLIS   SUNNY     42  33  70 W9        30.07R
-EAGLE CREEK   SUNNY     40  33  76 W9        30.08R
KOKOMO *+        N/A     37  30  75 W9        30.05R
MT COMFORT *+  SUNNY     39  28  65 W8        30.07R
SHELBYVILLE    SUNNY     42  35  76 W7        30.08R

$$

INZ033-034-041-042-049-050-058-059-301400-
EAST CENTRAL INDIANA

CITY           SKY/WX    TMP DP  RH WIND       PRES   REMARKS
MUNCIE         SUNNY     38  32  79 W9        30.05R

$$

INZ060-061-067>069-081>083-085>088-301400-
SOUTHWEST INDIANA

CITY           SKY/WX    TMP DP  RH WIND       PRES   REMARKS
EVANSVILLE     SUNNY     49  35  58 W6        30.17R
HUNTINGBURG *+ SUNNY     45  36  70 W6        30.15R

$$

INZ062-063-066-070>080-084-089>092-301400-
SOUTH CENTRAL AND SOUTHEAST INDIANA

CITY           SKY/WX    TMP DP  RH WIND       PRES   REMARKS
BLOOMINGTON    SUNNY     43  36  76 W8        30.11R
SEYMOUR +      SUNNY     45  43  93 W7        30.11R

$$



USA.gov is the U.S. government's official web portal to all federal, state and local government web resources and services.